Time,TemperatureF,DewpointF,PressureIn,WindDirection,WindDirectionDegrees,WindSpeedMPH,WindSpeedGustMPH,Humidity,HourlyPrecipIn,Conditions,Clouds,dailyrainin,SoftwareType,DateUTC
2013-09-29 00:01:00,54.9,49.2,29.98,SE,135,4.6,4.6,81,0.00,CLR,,0.00,WeatherDisplay:10.37,2013-09-29 04:01:00,
2013-09-29 00:03:00,54.9,49.2,29.98,East,90,4.6,4.6,81,0.00,CLR,,0.00,WeatherDisplay:10.37,2013-09-29 04:03:00,
2013-09-29 00:04:00,54.9,49.2,29.98,SSE,158,3.5,3.5,81,0.00,CLR,,0.00,WeatherDisplay:10.37,2013-09-29 04:04:00,
2013-09-29 00:05:00,54.9,49.2,29.98,ESE,118,2.0,5.0,81,0.00,CLR,,0.00,WeatherDisplay:10.37,2013-09-29 04:05:00,
2013-09-29 00:10:00,54.7,49.0,29.98,ESE,119,3.0,5.0,81,0.00,CLR,,0.00,WeatherDisplay:10.37,2013-09-29 04:10:00,
2013-09-29 00:15:00,54.7,49.0,29.98,ESE,119,2.0,5.0,81,0.00,CLR,,0.00,WeatherDisplay:10.37,2013-09-29 04:15:00,
2013-09-29 00:20:00,54.4,48.7,29.98,SE,125,2.0,6.0,81,0.00,CLR,,0.00,WeatherDisplay:10.37,2013-09-29 04:20:00,
2013-09-29 00:25:00,54.3,48.9,29.97,ESE,119,3.0,5.0,82,0.00,CLR,,0.00,WeatherDisplay:10.37,2013-09-29 04:25:00,
2013-09-29 00:30:00,54.3,48.9,29.97,ESE,119,2.0,4.0,82,0.00,CLR,,0.00,WeatherDisplay:10.37,2013-09-29 04:30:00,
2013-09-29 00:35:00,54.3,48.9,29.98,ESE,118,3.0,6.0,82,0.00,CLR,,0.00,WeatherDisplay:10.37,2013-09-29 04:35:00,
2013-09-29 00:40:00,54.3,48.9,29.98,SE,128,3.0,5.0,82,0.00,CLR,,0.00,WeatherDisplay:10.37,2013-09-29 04:40:00,
2013-09-29 00:45:00,54.3,48.9,29.98,SE,129,3.0,6.0,82,0.00,CLR,,0.00,WeatherDisplay:10.37,2013-09-29 04:45:00,
2013-09-29 00:50:00,54.3,48.9,29.98,SE,126,5.0,6.0,82,0.00,CLR,,0.00,WeatherDisplay:10.37,2013-09-29 04:50:00,
2013-09-29 00:55:00,54.3,48.9,29.98,SE,135,3.0,5.0,82,0.00,CLR,,0.00,WeatherDisplay:10.37,2013-09-29 04:55:00,
2013-09-29 01:00:00,54.3,48.9,29.97,SE,133,3.0,5.0,82,0.00,CLR,,0.00,WeatherDisplay:10.37,2013-09-29 05:00:00,
2013-09-29 01:05:00,54.1,48.7,29.97,SE,126,2.0,3.0,82,0.00,CLR,,0.00,WeatherDisplay:10.37,2013-09-29 05:05:00,
2013-09-29 01:10:00,54.0,48.6,29.97,ESE,119,2.0,3.0,82,0.00,CLR,,0.00,WeatherDisplay:10.37,2013-09-29 05:10:00,
2013-09-29 01:15:00,53.9,48.5,29.98,ESE,109,2.0,3.0,82,0.00,CLR,,0.00,WeatherDisplay:10.37,2013-09-29 05:15:00,
2013-09-29 01:20:00,53.5,48.5,29.98,ESE,113,2.0,4.0,83,0.00,CLR,,0.00,WeatherDisplay:10.37,2013-09-29 05:20:00,
2013-09-29 01:25:00,53.2,48.5,29.98,ESE,111,2.0,3.0,84,0.00,CLR,,0.00,WeatherDisplay:10.37,2013-09-29 05:25:00,
2013-09-29 01:30:00,53.2,48.5,29.98,ESE,108,2.0,3.0,84,0.00,CLR,,0.00,WeatherDisplay:10.37,2013-09-29 05:30:00,
2013-09-29 01:35:00,53.2,48.5,29.98,ESE,109,2.0,3.0,84,0.00,CLR,,0.00,WeatherDisplay:10.37,2013-09-29 05:35:00,
2013-09-29 01:40:00,53.2,48.5,29.98,ESE,111,2.0,3.0,84,0.00,CLR,,0.00,WeatherDisplay:10.37,2013-09-29 05:40:00,
2013-09-29 01:45:00,53.2,48.5,29.98,ESE,113,2.0,3.0,84,0.00,CLR,,0.00,WeatherDisplay:10.37,2013-09-29 05:45:00,
2013-09-29 01:50:00,53.1,48.4,29.97,ESE,112,2.0,3.0,84,0.00,CLR,,0.00,WeatherDisplay:10.37,2013-09-29 05:50:00,
2013-09-29 01:55:00,52.9,48.2,29.97,ESE,112,2.0,3.0,84,0.00,CLR,,0.00,WeatherDisplay:10.37,2013-09-29 05:55:00,
2013-09-29 02:00:00,52.7,48.0,29.97,ESE,115,0.0,2.0,84,0.00,CLR,,0.00,WeatherDisplay:10.37,2013-09-29 06:00:00,
2013-09-29 02:05:00,52.7,48.0,29.97,ESE,115,0.0,0.0,84,0.00,CLR,,0.00,WeatherDisplay:10.37,2013-09-29 06:05:00,
2013-09-29 02:10:00,52.5,47.8,29.97,East,97,0.0,2.0,84,0.00,CLR,,0.00,WeatherDisplay:10.37,2013-09-29 06:10:00,
2013-09-29 02:15:00,52.3,47.9,29.97,East,87,1.0,2.0,85,0.00,CLR,,0.00,WeatherDisplay:10.37,2013-09-29 06:15:00,
2013-09-29 02:20:00,52.2,47.8,29.97,ESE,109,0.0,2.0,85,0.00,CLR,,0.00,WeatherDisplay:10.37,2013-09-29 06:20:00,
2013-09-29 02:25:00,52.2,47.8,29.97,ESE,115,2.0,3.0,85,0.00,CLR,,0.00,WeatherDisplay:10.37,2013-09-29 06:25:00,
2013-09-29 02:30:00,52.0,47.6,29.97,ESE,113,1.0,2.0,85,0.00,CLR,,0.00,WeatherDisplay:10.37,2013-09-29 06:30:00,
2013-09-29 02:35:00,52.2,47.8,29.97,ESE,103,2.0,2.0,85,0.00,CLR,,0.00,WeatherDisplay:10.37,2013-09-29 06:35:00,
2013-09-29 02:40:00,52.2,47.8,29.96,East,91,0.0,2.0,85,0.00,CLR,,0.00,WeatherDisplay:10.37,2013-09-29 06:40:00,
2013-09-29 02:45:00,52.0,47.6,29.96,East,90,0.0,1.0,85,0.00,CLR,,0.00,WeatherDisplay:10.37,2013-09-29 06:45:00,
2013-09-29 02:50:00,52.2,47.8,29.96,East,94,0.0,2.0,85,0.00,CLR,,0.00,WeatherDisplay:10.37,2013-09-29 06:50:00,
2013-09-29 02:55:00,52.2,47.8,29.96,East,90,0.0,0.0,85,0.00,CLR,,0.00,WeatherDisplay:10.37,2013-09-29 06:55:00,
2013-09-29 03:00:00,52.0,47.6,29.96,ESE,112,0.0,0.0,85,0.00,CLR,,0.00,WeatherDisplay:10.37,2013-09-29 07:00:00,
2013-09-29 03:05:00,51.8,47.4,29.96,ESE,112,2.3,2.6,85,0.00,CLR,,0.00,WeatherDisplay:10.37,2013-09-29 07:05:00,
2013-09-29 03:10:00,51.8,47.4,29.96,ESE,112,1.1,1.1,85,0.00,CLR,,0.00,WeatherDisplay:10.37,2013-09-29 07:10:00,
2013-09-29 03:15:00,51.6,47.5,29.96,ESE,112,2.3,2.3,86,0.00,CLR,,0.00,WeatherDisplay:10.37,2013-09-29 07:15:00,
2013-09-29 03:20:00,51.4,47.4,29.96,ESE,112,0.0,0.0,86,0.00,CLR,,0.00,WeatherDisplay:10.37,2013-09-29 07:20:00,
2013-09-29 03:25:00,51.4,47.4,29.96,ESE,112,0.0,0.0,86,0.00,CLR,,0.00,WeatherDisplay:10.37,2013-09-29 07:25:00,
2013-09-29 03:30:00,51.6,47.5,29.96,ESE,112,0.0,0.0,86,0.00,CLR,,0.00,WeatherDisplay:10.37,2013-09-29 07:30:00,
2013-09-29 03:35:00,51.4,47.4,29.95,ESE,112,0.0,0.0,86,0.00,CLR,,0.00,WeatherDisplay:10.37,2013-09-29 07:35:00,
2013-09-29 03:40:00,51.1,47.1,29.95,ESE,112,0.0,0.0,86,0.00,CLR,,0.00,WeatherDisplay:10.37,2013-09-29 07:40:00,
2013-09-29 03:45:00,50.9,46.9,29.95,ESE,112,0.0,0.0,86,0.00,CLR,,0.00,WeatherDisplay:10.37,2013-09-29 07:45:00,
2013-09-29 03:50:00,50.9,46.9,29.95,ESE,112,0.0,0.0,86,0.00,CLR,,0.00,WeatherDisplay:10.37,2013-09-29 07:50:00,
2013-09-29 03:55:00,50.9,46.9,29.95,ESE,112,1.1,1.3,86,0.00,CLR,,0.00,WeatherDisplay:10.37,2013-09-29 07:55:00,
2013-09-29 04:00:00,50.9,46.9,29.95,ESE,112,2.3,2.3,86,0.00,CLR,,0.00,WeatherDisplay:10.37,2013-09-29 08:00:00,
2013-09-29 04:05:00,51.1,47.1,29.95,East,90,2.7,2.7,86,0.00,BKN,,0.00,WeatherDisplay:10.37,2013-09-29 08:05:00,
2013-09-29 04:10:00,51.4,47.4,29.95,East,90,2.3,2.3,86,0.00,BKN,,0.00,WeatherDisplay:10.37,2013-09-29 08:10:00,
2013-09-29 04:15:00,51.4,47.4,29.95,SE,135,0.0,0.0,86,0.00,BKN,,0.00,WeatherDisplay:10.37,2013-09-29 08:15:00,
2013-09-29 04:20:00,51.6,47.5,29.95,ESE,112,0.0,0.0,86,0.00,BKN,,0.00,WeatherDisplay:10.37,2013-09-29 08:20:00,
2013-09-29 04:25:00,52.0,47.9,29.95,ESE,112,0.0,0.0,86,0.00,BKN,,0.00,WeatherDisplay:10.37,2013-09-29 08:25:00,
2013-09-29 04:30:00,52.3,48.2,29.95,SE,135,0.0,0.0,86,0.00,BKN,,0.00,WeatherDisplay:10.37,2013-09-29 08:30:00,
2013-09-29 04:35:00,52.5,48.4,29.95,East,90,0.0,0.0,86,0.00,BKN,,0.00,WeatherDisplay:10.37,2013-09-29 08:35:00,
2013-09-29 04:40:00,52.5,48.1,29.95,ESE,112,2.7,2.7,85,0.00,BKN,,0.00,WeatherDisplay:10.37,2013-09-29 08:40:00,
2013-09-29 04:45:00,52.3,47.9,29.95,ESE,112,2.3,2.3,85,0.00,BKN,,0.00,WeatherDisplay:10.37,2013-09-29 08:45:00,
2013-09-29 04:50:00,52.3,47.9,29.95,ESE,112,2.7,2.7,85,0.00,BKN,,0.00,WeatherDisplay:10.37,2013-09-29 08:50:00,
2013-09-29 04:55:00,52.5,48.1,29.95,ESE,112,2.3,2.5,85,0.00,BKN,,0.00,WeatherDisplay:10.37,2013-09-29 08:55:00,
2013-09-29 05:00:00,52.5,48.1,29.95,East,90,1.7,1.7,85,0.00,BKN,,0.00,WeatherDisplay:10.37,2013-09-29 09:00:00,
2013-09-29 05:05:00,52.9,48.5,29.95,East,90,0.0,0.0,85,0.00,OVC,,0.00,WeatherDisplay:10.37,2013-09-29 09:05:00,
2013-09-29 05:10:00,52.9,48.5,29.95,East,90,0.0,0.0,85,0.00,OVC,,0.00,WeatherDisplay:10.37,2013-09-29 09:10:00,
2013-09-29 05:15:00,53.1,48.7,29.94,East,90,0.0,0.0,85,0.00,OVC,,0.00,WeatherDisplay:10.37,2013-09-29 09:15:00,
2013-09-29 05:20:00,53.4,49.0,29.94,East,90,2.3,2.3,85,0.00,OVC,,0.00,WeatherDisplay:10.37,2013-09-29 09:20:00,
2013-09-29 05:25:00,53.4,49.0,29.95,East,90,2.3,2.3,85,0.00,OVC,,0.00,WeatherDisplay:10.37,2013-09-29 09:25:00,
2013-09-29 05:30:00,53.2,48.8,29.95,East,90,3.5,3.5,85,0.00,OVC,,0.00,WeatherDisplay:10.37,2013-09-29 09:30:00,
2013-09-29 05:35:00,52.9,48.5,29.95,ESE,112,2.3,2.3,85,0.00,OVC,,0.00,WeatherDisplay:10.37,2013-09-29 09:35:00,
2013-09-29 05:40:00,53.1,48.7,29.95,SSW,202,0.0,0.0,85,0.00,OVC,,0.00,WeatherDisplay:10.37,2013-09-29 09:40:00,
2013-09-29 05:45:00,53.6,48.9,29.95,ESE,112,0.0,0.0,84,0.00,OVC,,0.00,WeatherDisplay:10.37,2013-09-29 09:45:00,
2013-09-29 05:50:00,54.1,49.4,29.95,East,90,2.2,2.2,84,0.00,OVC,,0.00,WeatherDisplay:10.37,2013-09-29 09:50:00,
2013-09-29 05:55:00,54.3,49.2,29.95,ESE,112,2.7,2.7,83,0.00,OVC,,0.00,WeatherDisplay:10.37,2013-09-29 09:55:00,
2013-09-29 06:00:00,54.1,49.1,29.94,East,90,2.3,2.3,83,0.00,OVC,,0.00,WeatherDisplay:10.37,2013-09-29 10:00:00,
2013-09-29 06:05:00,54.1,49.4,29.94,ESE,112,2.3,2.3,84,0.00,OVC,,0.00,WeatherDisplay:10.37,2013-09-29 10:05:00,
2013-09-29 06:10:00,54.5,49.4,29.94,ESE,112,2.2,2.2,83,0.00,OVC,,0.00,WeatherDisplay:10.37,2013-09-29 10:10:00,
2013-09-29 06:15:00,54.7,49.6,29.95,SE,135,2.3,2.3,83,0.00,OVC,,0.00,WeatherDisplay:10.37,2013-09-29 10:15:00,
2013-09-29 06:20:00,54.5,49.4,29.95,ENE,68,2.3,2.3,83,0.00,OVC,,0.00,WeatherDisplay:10.37,2013-09-29 10:20:00,
2013-09-29 06:25:00,54.7,49.6,29.95,East,90,2.3,2.3,83,0.00,OVC,,0.00,WeatherDisplay:10.37,2013-09-29 10:25:00,
2013-09-29 06:30:00,54.9,49.8,29.95,ESE,112,2.3,2.3,83,0.00,OVC,,0.00,WeatherDisplay:10.37,2013-09-29 10:30:00,
2013-09-29 06:35:00,54.3,49.6,29.95,WSW,248,2.3,2.3,84,0.00,OVC,,0.00,WeatherDisplay:10.37,2013-09-29 10:35:00,
2013-09-29 06:40:00,54.3,49.6,29.95,SW,225,0.0,0.0,84,0.00,OVC,,0.00,WeatherDisplay:10.37,2013-09-29 10:40:00,
2013-09-29 06:45:00,54.3,49.6,29.95,ESE,112,0.0,0.0,84,0.00,OVC,,0.00,WeatherDisplay:10.37,2013-09-29 10:45:00,
2013-09-29 06:50:00,54.5,49.8,29.95,SE,135,2.3,2.3,84,0.00,OVC,,0.00,WeatherDisplay:10.37,2013-09-29 10:50:00,
2013-09-29 06:55:00,53.6,49.5,29.95,East,90,2.7,2.7,86,0.00,OVC,,0.00,WeatherDisplay:10.37,2013-09-29 10:55:00,
2013-09-29 07:00:00,53.4,49.3,29.95,East,90,2.7,2.7,86,0.00,OVC,,0.00,WeatherDisplay:10.37,2013-09-29 11:00:00,
2013-09-29 07:05:00,53.4,49.3,29.95,ESE,112,2.3,2.3,86,0.00,OVC,,0.00,WeatherDisplay:10.37,2013-09-29 11:05:00,
2013-09-29 07:10:00,53.6,49.2,29.95,SSE,158,2.3,2.3,85,0.00,OVC,,0.00,WeatherDisplay:10.37,2013-09-29 11:10:00,
2013-09-29 07:15:00,53.6,49.2,29.95,East,90,0.0,0.0,85,0.00,OVC,,0.00,WeatherDisplay:10.37,2013-09-29 11:15:00,
2013-09-29 07:20:00,53.4,49.3,29.95,WSW,248,1.1,1.6,86,0.00,OVC,,0.00,WeatherDisplay:10.37,2013-09-29 11:20:00,
2013-09-29 07:25:00,52.9,48.8,29.95,WSW,248,0.0,0.0,86,0.00,OVC,,0.00,WeatherDisplay:10.37,2013-09-29 11:25:00,
2013-09-29 07:30:00,53.6,48.9,29.95,ESE,112,0.0,0.0,84,0.00,OVC,,0.00,WeatherDisplay:10.37,2013-09-29 11:30:00,
2013-09-29 07:35:00,53.2,48.5,29.95,SE,135,0.0,0.0,84,0.00,BKN,,0.00,WeatherDisplay:10.37,2013-09-29 11:35:00,
2013-09-29 07:40:00,53.2,48.8,29.95,ESE,112,2.7,2.7,85,0.00,BKN,,0.00,WeatherDisplay:10.37,2013-09-29 11:40:00,
2013-09-29 07:45:00,53.1,49.0,29.95,East,90,2.3,2.5,86,0.00,BKN,,0.00,WeatherDisplay:10.37,2013-09-29 11:45:00,
2013-09-29 07:50:00,52.7,48.6,29.95,ESE,112,2.3,2.3,86,0.00,BKN,,0.00,WeatherDisplay:10.37,2013-09-29 11:50:00,
2013-09-29 07:55:00,52.9,48.8,29.95,North,360,0.0,0.0,86,0.00,BKN,,0.00,WeatherDisplay:10.37,2013-09-29 11:55:00,
2013-09-29 08:00:00,52.9,48.8,29.96,SE,135,2.3,2.3,86,0.00,BKN,,0.00,WeatherDisplay:10.37,2013-09-29 12:00:00,
2013-09-29 08:05:00,53.2,48.8,29.96,ESE,112,1.1,1.1,85,0.00,BKN,,0.00,WeatherDisplay:10.37,2013-09-29 12:05:00,
2013-09-29 08:10:00,54.3,49.9,29.96,WSW,248,2.3,2.3,85,0.00,BKN,,0.00,WeatherDisplay:10.37,2013-09-29 12:10:00,
2013-09-29 08:15:00,55.9,50.5,29.96,South,180,0.0,0.0,82,0.00,BKN,,0.00,WeatherDisplay:10.37,2013-09-29 12:15:00,
2013-09-29 08:20:00,57.7,51.2,29.96,SW,225,0.0,0.0,79,0.00,BKN,,0.00,WeatherDisplay:10.37,2013-09-29 12:20:00,
2013-09-29 08:25:00,58.8,52.0,29.96,East,90,0.0,0.0,78,0.00,BKN,,0.00,WeatherDisplay:10.37,2013-09-29 12:25:00,
2013-09-29 08:30:00,57.9,51.8,29.96,East,90,2.3,2.3,80,0.00,BKN,,0.00,WeatherDisplay:10.37,2013-09-29 12:30:00,
2013-09-29 08:35:00,57.7,51.6,29.95,East,90,0.0,0.0,80,0.00,BKN,,0.00,WeatherDisplay:10.37,2013-09-29 12:35:00,
2013-09-29 08:40:00,60.3,52.3,29.95,WSW,248,2.3,2.3,75,0.00,BKN,,0.00,WeatherDisplay:10.37,2013-09-29 12:40:00,
2013-09-29 08:45:00,62.4,53.3,29.95,SW,225,2.3,2.3,72,0.00,BKN,,0.00,WeatherDisplay:10.37,2013-09-29 12:45:00,
2013-09-29 08:50:00,63.1,53.5,29.96,SW,225,3.2,3.2,71,0.00,BKN,,0.00,WeatherDisplay:10.37,2013-09-29 12:50:00,
2013-09-29 08:55:00,62.4,52.9,29.96,SW,225,2.7,2.7,71,0.00,BKN,,0.00,WeatherDisplay:10.37,2013-09-29 12:55:00,
2013-09-29 09:00:00,61.5,52.4,29.96,SSW,202,5.8,5.8,72,0.00,BKN,,0.00,WeatherDisplay:10.37,2013-09-29 13:00:00,
2013-09-29 09:05:00,60.8,52.5,29.96,SSW,202,4.7,4.7,74,0.00,BKN,,0.00,WeatherDisplay:10.37,2013-09-29 13:05:00,
2013-09-29 09:10:00,61.3,52.2,29.96,SW,225,3.5,3.5,72,0.00,BKN,,0.00,WeatherDisplay:10.37,2013-09-29 13:10:00,
2013-09-29 09:15:00,60.3,52.3,29.96,SE,135,3.5,3.5,75,0.00,BKN,,0.00,WeatherDisplay:10.37,2013-09-29 13:15:00,
2013-09-29 09:20:00,61.2,52.5,29.96,SSW,202,3.7,3.7,73,0.00,BKN,,0.00,WeatherDisplay:10.37,2013-09-29 13:20:00,
2013-09-29 09:25:00,61.0,52.3,29.95,West,270,4.6,4.6,73,0.00,BKN,,0.00,WeatherDisplay:10.37,2013-09-29 13:25:00,
2013-09-29 09:30:00,61.7,52.2,29.95,SW,225,4.7,4.7,71,0.00,BKN,,0.00,WeatherDisplay:10.37,2013-09-29 13:30:00,
2013-09-29 09:35:00,61.3,52.2,29.95,WNW,292,5.8,5.8,72,0.00,BKN,,0.00,WeatherDisplay:10.37,2013-09-29 13:35:00,
2013-09-29 09:40:00,61.3,52.6,29.95,South,180,3.5,3.5,73,0.00,BKN,,0.00,WeatherDisplay:10.37,2013-09-29 13:40:00,
2013-09-29 09:45:00,61.5,52.4,29.95,SSW,202,2.7,2.7,72,0.00,BKN,,0.00,WeatherDisplay:10.37,2013-09-29 13:45:00,
2013-09-29 09:50:00,61.7,52.2,29.95,SE,135,4.6,4.6,71,0.00,BKN,,0.00,WeatherDisplay:10.37,2013-09-29 13:50:00,
2013-09-29 09:55:00,63.3,52.6,29.95,ESE,112,2.3,2.3,68,0.00,BKN,,0.00,WeatherDisplay:10.37,2013-09-29 13:55:00,
2013-09-29 10:00:00,63.7,52.9,29.94,ESE,112,4.6,4.6,68,0.00,BKN,,0.00,WeatherDisplay:10.37,2013-09-29 14:00:00,
2013-09-29 10:05:00,64.4,53.2,29.94,ESE,112,3.5,3.5,67,0.00,CLR,,0.00,WeatherDisplay:10.37,2013-09-29 14:05:00,
2013-09-29 10:10:00,65.3,53.6,29.94,South,180,3.5,3.5,66,0.00,CLR,,0.00,WeatherDisplay:10.37,2013-09-29 14:10:00,
2013-09-29 10:15:00,64.0,53.6,29.94,East,90,3.5,3.5,69,0.00,CLR,,0.00,WeatherDisplay:10.37,2013-09-29 14:15:00,
2013-09-29 10:20:00,64.8,53.6,29.94,SE,135,2.3,2.3,67,0.00,CLR,,0.00,WeatherDisplay:10.37,2013-09-29 14:20:00,
2013-09-29 10:25:00,65.1,53.9,29.95,SSE,158,3.7,3.7,67,0.00,CLR,,0.00,WeatherDisplay:10.37,2013-09-29 14:25:00,
2013-09-29 10:30:00,64.8,54.0,29.95,WSW,248,4.2,4.2,68,0.00,CLR,,0.00,WeatherDisplay:10.37,2013-09-29 14:30:00,
2013-09-29 10:35:00,64.6,53.8,29.94,ESE,112,3.5,3.5,68,0.00,CLR,,0.00,WeatherDisplay:10.37,2013-09-29 14:35:00,
2013-09-29 10:40:00,64.8,53.6,29.94,SE,135,3.5,3.5,67,0.00,CLR,,0.00,WeatherDisplay:10.37,2013-09-29 14:40:00,
2013-09-29 10:45:00,67.1,54.1,29.94,WSW,248,3.7,3.7,63,0.00,CLR,,0.00,WeatherDisplay:10.37,2013-09-29 14:45:00,
2013-09-29 10:50:00,68.0,55.4,29.94,SSW,202,2.7,2.7,64,0.00,CLR,,0.00,WeatherDisplay:10.37,2013-09-29 14:50:00,
2013-09-29 10:55:00,65.8,54.1,29.94,SSE,158,3.5,3.5,66,0.00,CLR,,0.00,WeatherDisplay:10.37,2013-09-29 14:55:00,
2013-09-29 11:00:00,66.9,54.3,29.94,ESE,112,5.8,5.8,64,0.00,CLR,,0.00,WeatherDisplay:10.37,2013-09-29 15:00:00,
2013-09-29 11:05:00,67.6,55.0,29.94,SE,135,3.5,3.5,64,0.00,CLR,,0.00,WeatherDisplay:10.37,2013-09-29 15:05:00,
2013-09-29 11:10:00,68.5,55.0,29.94,SSW,202,5.8,5.8,62,0.00,CLR,,0.00,WeatherDisplay:10.37,2013-09-29 15:10:00,
2013-09-29 11:15:00,68.9,54.4,29.94,West,270,8.1,8.1,60,0.00,CLR,,0.00,WeatherDisplay:10.37,2013-09-29 15:15:00,
2013-09-29 11:20:00,68.5,55.0,29.94,West,270,6.9,6.9,62,0.00,CLR,,0.00,WeatherDisplay:10.37,2013-09-29 15:20:00,
2013-09-29 11:25:00,69.3,54.8,29.93,SSE,158,3.5,3.5,60,0.00,CLR,,0.00,WeatherDisplay:10.37,2013-09-29 15:25:00,
2013-09-29 11:30:00,68.4,54.9,29.93,SW,225,3.5,3.5,62,0.00,CLR,,0.00,WeatherDisplay:10.37,2013-09-29 15:30:00,
2013-09-29 11:35:00,68.5,55.4,29.93,SSW,202,4.7,4.7,63,0.00,CLR,,0.00,WeatherDisplay:10.37,2013-09-29 15:35:00,
2013-09-29 11:40:00,69.3,55.3,29.93,WSW,248,5.8,5.8,61,0.00,CLR,,0.00,WeatherDisplay:10.37,2013-09-29 15:40:00,
2013-09-29 11:45:00,68.4,54.9,29.93,SSW,202,8.1,8.1,62,0.00,CLR,,0.00,WeatherDisplay:10.37,2013-09-29 15:45:00,
2013-09-29 11:50:00,68.5,55.4,29.93,WSW,248,6.3,6.3,63,0.00,CLR,,0.00,WeatherDisplay:10.37,2013-09-29 15:50:00,
2013-09-29 11:55:00,68.5,55.8,29.93,SW,225,4.6,4.6,64,0.00,CLR,,0.00,WeatherDisplay:10.37,2013-09-29 15:55:00,
2013-09-29 12:00:00,69.1,55.5,29.93,WSW,248,5.8,5.8,62,0.00,CLR,,0.00,WeatherDisplay:10.37,2013-09-29 16:00:00,
2013-09-29 12:05:00,69.1,55.5,29.93,WSW,248,5.8,5.8,62,0.00,CLR,,0.00,WeatherDisplay:10.37,2013-09-29 16:05:00,
2013-09-29 12:10:00,67.1,55.8,29.93,WSW,248,3.7,3.7,67,0.00,CLR,,0.00,WeatherDisplay:10.37,2013-09-29 16:10:00,
2013-09-29 12:15:00,69.4,56.7,29.93,ESE,112,2.3,2.3,64,0.00,CLR,,0.00,WeatherDisplay:10.37,2013-09-29 16:15:00,
2013-09-29 12:20:00,70.9,56.3,29.93,SSW,202,6.9,6.9,60,0.00,CLR,,0.00,WeatherDisplay:10.37,2013-09-29 16:20:00,
2013-09-29 12:25:00,68.7,56.0,29.92,WSW,248,4.7,4.7,64,0.00,CLR,,0.00,WeatherDisplay:10.37,2013-09-29 16:25:00,
2013-09-29 12:30:00,69.3,56.2,29.92,West,270,4.6,4.6,63,0.00,CLR,,0.00,WeatherDisplay:10.37,2013-09-29 16:30:00,
2013-09-29 12:35:00,69.4,55.8,29.92,SSE,158,4.6,4.6,62,0.00,CLR,,0.00,WeatherDisplay:10.37,2013-09-29 16:35:00,
2013-09-29 12:40:00,70.7,56.6,29.92,SE,135,4.6,4.6,61,0.00,CLR,,0.00,WeatherDisplay:10.37,2013-09-29 16:40:00,
2013-09-29 12:45:00,72.5,56.9,29.92,ENE,68,4.6,4.6,58,0.00,CLR,,0.00,WeatherDisplay:10.37,2013-09-29 16:45:00,
2013-09-29 12:50:00,69.6,56.0,29.91,East,90,4.7,4.7,62,0.00,CLR,,0.00,WeatherDisplay:10.37,2013-09-29 16:50:00,
2013-09-29 12:55:00,71.1,57.0,29.91,South,180,3.5,3.5,61,0.00,CLR,,0.00,WeatherDisplay:10.37,2013-09-29 16:55:00,
2013-09-29 13:00:00,76.5,59.1,29.92,WSW,248,4.6,4.6,55,0.00,CLR,,0.00,WeatherDisplay:10.37,2013-09-29 17:00:00,
2013-09-29 13:05:00,73.9,57.7,29.92,West,270,4.6,4.6,57,0.00,CLR,,0.00,WeatherDisplay:10.37,2013-09-29 17:05:00,
2013-09-29 13:10:00,72.3,57.6,29.92,SSE,158,5.8,5.8,60,0.00,CLR,,0.00,WeatherDisplay:10.37,2013-09-29 17:10:00,
2013-09-29 13:15:00,73.9,57.2,29.91,SSW,202,4.6,4.6,56,0.00,CLR,,0.00,WeatherDisplay:10.37,2013-09-29 17:15:00,
2013-09-29 13:20:00,73.8,58.1,29.91,SE,135,2.7,2.7,58,0.00,CLR,,0.00,WeatherDisplay:10.37,2013-09-29 17:20:00,
2013-09-29 13:25:00,72.9,57.7,29.90,SW,225,5.8,5.8,59,0.00,CLR,,0.00,WeatherDisplay:10.37,2013-09-29 17:25:00,
2013-09-29 13:30:00,72.9,57.7,29.90,SW,225,5.8,5.8,59,0.00,CLR,,0.00,WeatherDisplay:10.37,2013-09-29 17:30:00,
2013-09-29 13:35:00,72.1,57.0,29.90,West,270,5.8,5.8,59,0.00,CLR,,0.00,WeatherDisplay:10.37,2013-09-29 17:35:00,
2013-09-29 13:40:00,75.4,57.6,29.90,SW,225,5.8,5.8,54,0.00,CLR,,0.00,WeatherDisplay:10.37,2013-09-29 17:40:00,
2013-09-29 13:46:00,77.0,58.0,29.90,SW,225,5.8,5.8,52,0.00,CLR,,0.00,WeatherDisplay:10.37,2013-09-29 17:46:00,
2013-09-29 13:51:00,74.3,57.6,29.90,ESE,112,2.3,2.3,56,0.00,CLR,,0.00,WeatherDisplay:10.37,2013-09-29 17:51:00,
2013-09-29 13:56:00,73.9,57.7,29.90,SW,225,2.3,2.3,57,0.00,CLR,,0.00,WeatherDisplay:10.37,2013-09-29 17:56:00,
2013-09-29 14:01:00,79.9,59.6,29.89,SW,225,4.6,4.6,50,0.00,CLR,,0.00,WeatherDisplay:10.37,2013-09-29 18:01:00,
2013-09-29 14:06:00,76.8,57.8,29.89,SW,225,3.5,3.5,52,0.00,CLR,,0.00,WeatherDisplay:10.37,2013-09-29 18:06:00,
2013-09-29 14:11:00,76.8,58.4,29.89,WSW,248,2.3,2.3,53,0.00,CLR,,0.00,WeatherDisplay:10.37,2013-09-29 18:11:00,
2013-09-29 14:16:00,77.4,58.4,29.88,ESE,112,5.8,5.8,52,0.00,CLR,,0.00,WeatherDisplay:10.37,2013-09-29 18:16:00,
2013-09-29 14:21:00,77.4,58.4,29.88,West,270,5.8,5.8,52,0.00,CLR,,0.00,WeatherDisplay:10.37,2013-09-29 18:21:00,
2013-09-29 14:26:00,76.6,57.7,29.88,SSW,202,4.6,4.6,52,0.00,CLR,,0.00,WeatherDisplay:10.37,2013-09-29 18:26:00,
2013-09-29 14:31:00,79.0,57.6,29.88,WSW,248,4.6,4.6,48,0.00,FEW,,0.00,WeatherDisplay:10.37,2013-09-29 18:31:00,
2013-09-29 14:36:00,77.2,58.2,29.87,West,270,0.0,0.0,52,0.00,FEW,,0.00,WeatherDisplay:10.37,2013-09-29 18:36:00,
2013-09-29 14:41:00,78.4,58.2,29.87,SW,225,3.7,3.7,50,0.00,FEW,,0.00,WeatherDisplay:10.37,2013-09-29 18:41:00,
2013-09-29 14:46:00,78.8,59.1,29.87,SSW,202,4.6,4.6,51,0.00,FEW,,0.00,WeatherDisplay:10.37,2013-09-29 18:46:00,
2013-09-29 14:51:00,79.5,59.8,29.87,South,180,4.6,4.6,51,0.00,FEW,,0.00,WeatherDisplay:10.37,2013-09-29 18:51:00,
2013-09-29 14:56:00,73.9,57.7,29.87,East,90,1.7,1.7,57,0.00,FEW,,0.00,WeatherDisplay:10.37,2013-09-29 18:56:00,
2013-09-29 15:01:00,79.0,59.9,29.87,WSW,248,5.8,5.8,52,0.00,SCT,,0.00,WeatherDisplay:10.37,2013-09-29 19:01:00,
2013-09-29 15:06:00,76.1,58.2,29.87,West,270,5.8,5.8,54,0.00,SCT,,0.00,WeatherDisplay:10.37,2013-09-29 19:06:00,
2013-09-29 15:11:00,77.5,58.5,29.87,SSE,158,3.5,3.5,52,0.00,SCT,,0.00,WeatherDisplay:10.37,2013-09-29 19:11:00,
2013-09-29 15:16:00,76.1,57.2,29.87,West,270,4.6,4.6,52,0.00,SCT,,0.00,WeatherDisplay:10.37,2013-09-29 19:16:00,
2013-09-29 15:21:00,77.4,57.9,29.87,SW,225,5.8,5.8,51,0.00,SCT,,0.00,WeatherDisplay:10.37,2013-09-29 19:21:00,
2013-09-29 15:26:00,76.8,58.4,29.87,SSW,202,5.8,5.8,53,0.00,SCT,,0.00,WeatherDisplay:10.37,2013-09-29 19:26:00,
2013-09-29 15:31:00,75.6,57.8,29.87,SW,225,4.6,4.6,54,0.00,SCT,,0.00,WeatherDisplay:10.37,2013-09-29 19:31:00,
2013-09-29 15:36:00,75.0,58.2,29.86,WSW,248,4.6,4.6,56,0.00,SCT,,0.00,WeatherDisplay:10.37,2013-09-29 19:36:00,
2013-09-29 15:41:00,74.7,58.5,29.86,SW,225,4.6,4.6,57,0.00,SCT,,0.00,WeatherDisplay:10.37,2013-09-29 19:41:00,
2013-09-29 15:46:00,76.5,57.6,29.86,SW,225,5.8,5.8,52,0.00,SCT,,0.00,WeatherDisplay:10.37,2013-09-29 19:46:00,
2013-09-29 15:49:00,75.9,58.1,29.86,WSW,248,4.6,4.6,54,0.00,SCT,,0.00,WeatherDisplay:10.37,2013-09-29 19:49:00,
2013-09-29 15:54:00,79.2,59.5,29.86,South,180,4.6,4.6,51,0.00,SCT,,0.00,WeatherDisplay:10.37,2013-09-29 19:54:00,
2013-09-29 15:59:00,80.4,59.5,29.86,South,180,4.6,4.6,49,0.00,SCT,,0.00,WeatherDisplay:10.37,2013-09-29 19:59:00,
2013-09-29 16:04:00,77.7,58.7,29.85,SSW,202,5.8,5.8,52,0.00,SCT,,0.00,WeatherDisplay:10.37,2013-09-29 20:04:00,
2013-09-29 16:09:00,75.9,58.1,29.85,South,180,4.6,4.6,54,0.00,SCT,,0.00,WeatherDisplay:10.37,2013-09-29 20:09:00,
2013-09-29 16:14:00,77.2,58.2,29.86,SW,225,3.7,3.7,52,0.00,SCT,,0.00,WeatherDisplay:10.37,2013-09-29 20:14:00,
2013-09-29 16:19:00,77.5,59.5,29.86,SSW,202,3.5,3.5,54,0.00,SCT,,0.00,WeatherDisplay:10.37,2013-09-29 20:19:00,
2013-09-29 16:24:00,77.2,58.7,29.85,SW,225,3.5,3.5,53,0.00,SCT,,0.00,WeatherDisplay:10.37,2013-09-29 20:24:00,
2013-09-29 16:29:00,76.5,59.1,29.85,SW,225,2.3,2.3,55,0.00,SCT,,0.00,WeatherDisplay:10.37,2013-09-29 20:29:00,
2013-09-29 16:34:00,75.0,57.2,29.85,WSW,248,2.3,2.3,54,0.00,CLR,,0.00,WeatherDisplay:10.37,2013-09-29 20:34:00,
2013-09-29 16:39:00,76.5,58.6,29.85,WSW,248,2.3,2.3,54,0.00,CLR,,0.00,WeatherDisplay:10.37,2013-09-29 20:39:00,
2013-09-29 16:44:00,75.4,57.6,29.85,SW,225,2.3,2.3,54,0.00,CLR,,0.00,WeatherDisplay:10.37,2013-09-29 20:44:00,
2013-09-29 16:49:00,76.6,58.2,29.85,SE,135,2.3,2.3,53,0.00,CLR,,0.00,WeatherDisplay:10.37,2013-09-29 20:49:00,
2013-09-29 16:54:00,75.0,57.7,29.85,SE,135,3.7,3.7,55,0.00,CLR,,0.00,WeatherDisplay:10.37,2013-09-29 20:54:00,
2013-09-29 16:59:00,73.8,57.1,29.85,ESE,112,2.3,2.3,56,0.00,CLR,,0.00,WeatherDisplay:10.37,2013-09-29 20:59:00,
2013-09-29 17:04:00,75.4,58.1,29.85,SW,225,1.7,1.7,55,0.00,FEW,,0.00,WeatherDisplay:10.37,2013-09-29 21:04:00,
2013-09-29 17:09:00,79.5,57.5,29.85,SW,225,2.3,2.6,47,0.00,FEW,,0.00,WeatherDisplay:10.37,2013-09-29 21:09:00,
2013-09-29 17:14:00,79.9,58.5,29.84,SW,225,3.5,3.5,48,0.00,FEW,,0.00,WeatherDisplay:10.37,2013-09-29 21:14:00,
2013-09-29 17:19:00,77.5,57.4,29.84,SW,225,1.7,1.7,50,0.00,FEW,,0.00,WeatherDisplay:10.37,2013-09-29 21:19:00,
2013-09-29 17:24:00,78.6,57.8,29.84,SSE,158,2.3,2.3,49,0.00,FEW,,0.00,WeatherDisplay:10.37,2013-09-29 21:24:00,
2013-09-29 17:29:00,77.4,57.9,29.84,SE,135,2.3,2.3,51,0.00,FEW,,0.00,WeatherDisplay:10.37,2013-09-29 21:29:00,
2013-09-29 17:34:00,76.5,58.1,29.84,SW,225,2.3,2.3,53,0.00,FEW,,0.00,WeatherDisplay:10.37,2013-09-29 21:34:00,
2013-09-29 17:39:00,76.5,58.1,29.84,SW,225,3.5,3.5,53,0.00,FEW,,0.00,WeatherDisplay:10.37,2013-09-29 21:39:00,
2013-09-29 17:44:00,75.6,58.3,29.84,WSW,248,2.3,2.3,55,0.00,FEW,,0.00,WeatherDisplay:10.37,2013-09-29 21:44:00,
2013-09-29 17:49:00,75.6,59.3,29.84,SW,225,2.3,2.3,57,0.00,FEW,,0.00,WeatherDisplay:10.37,2013-09-29 21:49:00,
2013-09-29 17:54:00,75.6,58.8,29.84,SW,225,0.0,0.0,56,0.00,FEW,,0.00,WeatherDisplay:10.37,2013-09-29 21:54:00,
2013-09-29 17:59:00,74.1,58.4,29.84,West,270,0.0,0.0,58,0.00,FEW,,0.00,WeatherDisplay:10.37,2013-09-29 21:59:00,
2013-09-29 18:04:00,73.9,58.7,29.84,SW,225,0.0,0.0,59,0.00,CLR,,0.00,WeatherDisplay:10.37,2013-09-29 22:04:00,
2013-09-29 18:09:00,73.0,58.3,29.84,South,180,2.3,2.3,60,0.00,CLR,,0.00,WeatherDisplay:10.37,2013-09-29 22:09:00,
2013-09-29 18:14:00,73.0,60.1,29.84,WSW,248,0.0,0.0,64,0.00,CLR,,0.00,WeatherDisplay:10.37,2013-09-29 22:14:00,
2013-09-29 18:19:00,72.7,61.5,29.84,SW,225,2.3,2.3,68,0.00,CLR,,0.00,WeatherDisplay:10.37,2013-09-29 22:19:00,
2013-09-29 18:24:00,72.1,59.7,29.84,West,270,0.0,0.0,65,0.00,CLR,,0.00,WeatherDisplay:10.37,2013-09-29 22:24:00,
2013-09-29 18:29:00,71.8,59.0,29.84,SSE,158,0.0,0.0,64,0.00,CLR,,0.00,WeatherDisplay:10.37,2013-09-29 22:29:00,
2013-09-29 18:34:00,71.8,59.0,29.84,South,180,0.0,0.0,64,0.00,CLR,,0.00,WeatherDisplay:10.37,2013-09-29 22:34:00,
2013-09-29 18:39:00,71.6,58.8,29.84,WNW,292,0.0,0.0,64,0.00,CLR,,0.00,WeatherDisplay:10.37,2013-09-29 22:39:00,
2013-09-29 18:44:00,70.9,61.4,29.84,SW,225,0.0,0.0,72,0.00,CLR,,0.00,WeatherDisplay:10.37,2013-09-29 22:44:00,
2013-09-29 18:49:00,70.2,60.7,29.84,SW,225,0.0,0.0,72,0.00,CLR,,0.00,WeatherDisplay:10.37,2013-09-29 22:49:00,
2013-09-29 18:54:00,69.6,59.4,29.84,SW,225,0.0,0.0,70,0.00,CLR,,0.00,WeatherDisplay:10.37,2013-09-29 22:54:00,
2013-09-29 18:59:00,69.3,58.7,29.84,SW,225,0.0,0.0,69,0.00,CLR,,0.00,WeatherDisplay:10.37,2013-09-29 22:59:00,
2013-09-29 19:04:00,68.9,58.7,29.84,SW,225,0.0,0.0,70,0.00,CLR,,0.00,WeatherDisplay:10.37,2013-09-29 23:04:00,
2013-09-29 19:09:00,68.2,60.0,29.84,SW,225,0.0,0.0,75,0.00,CLR,,0.00,WeatherDisplay:10.37,2013-09-29 23:09:00,
2013-09-29 19:14:00,67.1,58.9,29.84,West,270,0.0,0.0,75,0.00,CLR,,0.00,WeatherDisplay:10.37,2013-09-29 23:14:00,
2013-09-29 19:19:00,66.9,58.0,29.84,WSW,248,0.0,0.0,73,0.00,CLR,,0.00,WeatherDisplay:10.37,2013-09-29 23:19:00,
2013-09-29 19:24:00,66.9,58.0,29.84,West,270,0.0,0.0,73,0.00,CLR,,0.00,WeatherDisplay:10.37,2013-09-29 23:24:00,
2013-09-29 19:29:00,66.7,57.4,29.84,West,270,0.0,0.0,72,0.00,CLR,,0.00,WeatherDisplay:10.37,2013-09-29 23:29:00,
2013-09-29 19:34:00,66.7,57.8,29.84,ESE,112,0.0,0.0,73,0.00,CLR,,0.00,WeatherDisplay:10.37,2013-09-29 23:34:00,
2013-09-29 19:39:00,66.4,58.2,29.85,ESE,112,0.0,0.0,75,0.00,CLR,,0.00,WeatherDisplay:10.37,2013-09-29 23:39:00,
2013-09-29 19:44:00,66.2,58.4,29.85,ESE,112,0.0,0.0,76,0.00,CLR,,0.00,WeatherDisplay:10.37,2013-09-29 23:44:00,
2013-09-29 19:49:00,65.7,58.3,29.85,ESE,112,0.0,0.0,77,0.00,CLR,,0.00,WeatherDisplay:10.37,2013-09-29 23:49:00,
2013-09-29 19:54:00,65.5,58.1,29.85,ESE,112,0.0,0.0,77,0.00,CLR,,0.00,WeatherDisplay:10.37,2013-09-29 23:54:00,
2013-09-29 19:59:00,65.1,58.4,29.85,SE,135,3.2,3.2,79,0.00,CLR,,0.00,WeatherDisplay:10.37,2013-09-29 23:59:00,
2013-09-29 20:04:00,63.9,58.3,29.85,SSE,158,3.5,3.5,82,0.00,BKN,,0.00,WeatherDisplay:10.37,2013-09-30 00:04:00,
2013-09-29 20:09:00,63.9,58.3,29.85,ESE,112,2.7,2.7,82,0.00,BKN,,0.00,WeatherDisplay:10.37,2013-09-30 00:09:00,
2013-09-29 20:14:00,64.6,57.6,29.86,ESE,112,4.6,4.6,78,0.00,BKN,,0.00,WeatherDisplay:10.37,2013-09-30 00:14:00,
2013-09-29 20:19:00,64.9,57.2,29.86,East,90,3.2,3.2,76,0.00,BKN,,0.00,WeatherDisplay:10.37,2013-09-30 00:19:00,
2013-09-29 20:24:00,64.9,56.8,29.86,ESE,112,5.8,5.8,75,0.00,BKN,,0.00,WeatherDisplay:10.37,2013-09-30 00:24:00,
2013-09-29 20:29:00,64.6,56.5,29.86,ESE,112,3.5,3.5,75,0.00,BKN,,0.00,WeatherDisplay:10.37,2013-09-30 00:29:00,
2013-09-29 20:34:00,64.4,56.7,29.86,ESE,112,5.8,5.8,76,0.00,BKN,,0.00,WeatherDisplay:10.37,2013-09-30 00:34:00,
2013-09-29 20:39:00,64.4,56.7,29.86,ESE,112,4.6,4.6,76,0.00,BKN,,0.00,WeatherDisplay:10.37,2013-09-30 00:39:00,
2013-09-29 20:44:00,64.2,56.5,29.86,ESE,112,4.6,4.6,76,0.00,BKN,,0.00,WeatherDisplay:10.37,2013-09-30 00:44:00,
2013-09-29 20:49:00,64.0,55.9,29.86,ESE,112,5.8,5.8,75,0.00,BKN,,0.00,WeatherDisplay:10.37,2013-09-30 00:49:00,
2013-09-29 20:54:00,64.0,55.9,29.86,SW,225,3.5,3.5,75,0.00,BKN,,0.00,WeatherDisplay:10.37,2013-09-30 00:54:00,
2013-09-29 20:59:00,64.0,55.5,29.87,SE,135,3.5,3.5,74,0.00,BKN,,0.00,WeatherDisplay:10.37,2013-09-30 00:59:00,
2013-09-29 21:04:00,64.0,55.5,29.87,SSE,158,3.5,3.5,74,0.00,BKN,,0.00,WeatherDisplay:10.37,2013-09-30 01:04:00,
2013-09-29 21:09:00,64.0,55.5,29.87,ESE,112,3.5,3.5,74,0.00,BKN,,0.00,WeatherDisplay:10.37,2013-09-30 01:09:00,
2013-09-29 21:14:00,63.9,55.4,29.86,SSE,158,4.6,4.6,74,0.00,BKN,,0.00,WeatherDisplay:10.37,2013-09-30 01:14:00,
2013-09-29 21:19:00,63.7,55.3,29.86,ESE,112,3.5,3.5,74,0.00,BKN,,0.00,WeatherDisplay:10.37,2013-09-30 01:19:00,
2013-09-29 21:24:00,63.7,55.3,29.86,ESE,112,2.7,2.7,74,0.00,BKN,,0.00,WeatherDisplay:10.37,2013-09-30 01:24:00,
2013-09-29 21:29:00,63.5,55.1,29.86,SSE,158,5.8,5.8,74,0.00,BKN,,0.00,WeatherDisplay:10.37,2013-09-30 01:29:00,
2013-09-29 21:34:00,63.5,55.1,29.86,ENE,68,2.3,2.3,74,0.00,BKN,,0.00,WeatherDisplay:10.37,2013-09-30 01:34:00,
2013-09-29 21:39:00,63.3,54.9,29.86,NE,45,2.7,2.7,74,0.00,BKN,,0.00,WeatherDisplay:10.37,2013-09-30 01:39:00,
2013-09-29 21:44:00,63.1,54.7,29.86,ESE,112,4.6,4.6,74,0.00,BKN,,0.00,WeatherDisplay:10.37,2013-09-30 01:44:00,
2013-09-29 21:49:00,62.8,54.8,29.86,ESE,112,3.7,3.7,75,0.00,BKN,,0.00,WeatherDisplay:10.37,2013-09-30 01:49:00,
2013-09-29 21:54:00,62.6,54.9,29.86,ESE,112,4.2,4.2,76,0.00,BKN,,0.00,WeatherDisplay:10.37,2013-09-30 01:54:00,
2013-09-29 21:59:00,62.6,54.9,29.85,SE,135,4.6,4.6,76,0.00,BKN,,0.00,WeatherDisplay:10.37,2013-09-30 01:59:00,
2013-09-29 22:04:00,62.4,54.7,29.85,ESE,112,3.7,3.7,76,0.00,CLR,,0.00,WeatherDisplay:10.37,2013-09-30 02:04:00,
2013-09-29 22:09:00,62.4,54.7,29.85,ESE,112,5.8,5.8,76,0.00,CLR,,0.00,WeatherDisplay:10.37,2013-09-30 02:09:00,
2013-09-29 22:14:00,62.2,54.5,29.85,ESE,112,5.8,5.8,76,0.00,CLR,,0.00,WeatherDisplay:10.37,2013-09-30 02:14:00,
2013-09-29 22:19:00,62.1,54.4,29.85,SSE,158,3.5,3.6,76,0.00,CLR,,0.00,WeatherDisplay:10.37,2013-09-30 02:19:00,
2013-09-29 22:24:00,62.1,54.4,29.85,SE,135,3.7,3.7,76,0.00,CLR,,0.00,WeatherDisplay:10.37,2013-09-30 02:24:00,
2013-09-29 22:29:00,62.1,54.4,29.85,ESE,112,3.5,3.5,76,0.00,CLR,,0.00,WeatherDisplay:10.37,2013-09-30 02:29:00,
2013-09-29 22:34:00,61.9,54.2,29.85,SE,135,2.3,2.3,76,0.00,CLR,,0.00,WeatherDisplay:10.37,2013-09-30 02:34:00,
2013-09-29 22:39:00,61.7,54.1,29.85,ESE,112,3.5,3.5,76,0.00,CLR,,0.00,WeatherDisplay:10.37,2013-09-30 02:39:00,
2013-09-29 22:44:00,61.5,53.9,29.85,ENE,68,3.5,3.5,76,0.00,CLR,,0.00,WeatherDisplay:10.37,2013-09-30 02:44:00,
2013-09-29 22:49:00,61.5,54.2,29.86,SE,135,3.5,3.5,77,0.00,CLR,,0.00,WeatherDisplay:10.37,2013-09-30 02:49:00,
2013-09-29 22:54:00,61.2,54.6,29.86,WSW,248,0.0,0.0,79,0.00,CLR,,0.00,WeatherDisplay:10.37,2013-09-30 02:54:00,
2013-09-29 22:59:00,60.8,54.2,29.86,SW,225,2.3,0.0,79,0.00,CLR,,0.00,WeatherDisplay:10.37,2013-09-30 02:59:00,
2013-09-29 23:04:00,60.4,53.9,29.86,SW,225,1.1,0.0,79,0.00,CLR,,0.00,WeatherDisplay:10.37,2013-09-30 03:04:00,
2013-09-29 23:09:00,60.6,54.0,29.86,East,90,0.0,0.0,79,0.00,CLR,,0.00,WeatherDisplay:10.37,2013-09-30 03:09:00,
2013-09-29 23:14:00,60.6,54.0,29.86,ESE,112,2.3,2.3,79,0.00,CLR,,0.00,WeatherDisplay:10.37,2013-09-30 03:14:00,
2013-09-29 23:19:00,60.6,54.0,29.86,East,90,2.2,2.2,79,0.00,CLR,,0.00,WeatherDisplay:10.37,2013-09-30 03:19:00,
2013-09-29 23:24:00,60.4,53.9,29.86,SSE,158,2.3,2.3,79,0.00,CLR,,0.00,WeatherDisplay:10.37,2013-09-30 03:24:00,
2013-09-29 23:30:00,60.3,54.1,29.86,ESE,109,0.0,0.0,80,0.00,CLR,,0.00,WeatherDisplay:10.37,2013-09-30 03:30:00,
2013-09-29 23:35:00,59.8,54.0,29.85,ESE,104,0.0,0.0,81,0.00,CLR,,0.00,WeatherDisplay:10.37,2013-09-30 03:35:00,
2013-09-29 23:40:00,59.2,53.7,29.85,WSW,249,0.0,2.0,82,0.00,CLR,,0.00,WeatherDisplay:10.37,2013-09-30 03:40:00,
2013-09-29 23:45:00,59.0,53.5,29.85,WSW,253,0.0,2.0,82,0.00,CLR,,0.00,WeatherDisplay:10.37,2013-09-30 03:45:00,
2013-09-29 23:50:00,59.0,53.5,29.85,WSW,239,0.0,0.0,82,0.00,CLR,,0.00,WeatherDisplay:10.37,2013-09-30 03:50:00,
2013-09-29 23:55:00,58.8,53.3,29.85,SW,218,0.0,2.0,82,0.00,CLR,,0.00,WeatherDisplay:10.37,2013-09-30 03:55:00,